Tracking 19219 objects as of 19-Jul-2018
HD Live streaming from Space Station
objects crossing your sky now

APRIZESAT 1

Track APRIZESAT 1 now!
10-day predictions
APRIZESAT 1 is classified as:


NORAD ID: 28372
Int'l Code: 2004-025G
Perigee: 701.9 km
Apogee: 766.6 km
Inclination: 98.3 °
Period: 99.3 minutes
Semi major axis: 7105 km
RCS: 0.0588 m2 (small)
Launch date: June 29, 2004
Source: United States (US)
Launch site: TYURATAM MISSILE AND SPACE COMPLEX (TTMTR)

Messaging services.
aabbcc
Your satellite tracking list
Your tracking list is empty




NASA's NSSDC Master Catalog

Two Line Element Set (TLE):
1 28372U 04025G   18199.37656314  .00000025  00000-0  18311-4 0  9991
2 28372  98.3018 145.2189 0045551 319.2697  40.5094 14.49552945742968
Source of the keplerian elements: AFSPC